Regional Weather Roundup
Issued by NWS

Home | Current Version | Previous Version | Graphics & Text | Print | Product List | Glossary On
Versions: 1 2 3 4 5 6 7 8 9 10 11 12 13 14 15 16 17 18 19 20 21 22 23 24 25 26 27 28 29 30 31 32 33 34 35 36 37 38 39 40 41 42 43 44 45 46 47 48 49 50
000
ASUS43 KOAX 241210
RWRNE

WEATHER ROUNDUP FOR NEBRASKA
NATIONAL WEATHER SERVICE OMAHA NE
700 AM CDT WED AUG 24 2016

NOTES: SATELLITE DATA IS BEING USED TO AUGMENT CLOUD COVER ABOVE
       12000 FEET.
       "FAIR" INDICATES FEW OR NO CLOUDS BELOW 12,000 FEET WITH NO
       SIGNIFICANT WEATHER AND/OR OBSTRUCTIONS TO VISIBILITY.

  * THESE STATIONS DO NOT REPORT WEATHER SUCH AS RAIN...SNOW OR FOG.

NEZ001>004-019>022-054>056-241300-
NEBRASKA PANHANDLE

CITY           SKY/WX    TMP DP  RH WIND       PRES   REMARKS
SCOTTSBLUFF    CLOUDY    58  41  53 E7        30.16R
6HR MIN TEMP:  56; 6HR MAX TEMP:  61;

ALLIANCE       CLOUDY    49  44  83 W3        30.16R
6HR MIN TEMP:  46; 6HR MAX TEMP:  52;

CHADRON        MOCLDY    48  37  65 MISG      30.16R
6HR MIN TEMP:  43; 6HR MAX TEMP:  54;

KIMBALL        CLOUDY    63  36  37 S14       30.16R
SIDNEY         CLOUDY    57  47  69 CALM      30.17R
6HR MIN TEMP:  55; 6HR MAX TEMP:  61;

$$

NEZ057>060-069>072-079>082-241300-
SOUTHWEST NEBRASKA

CITY           SKY/WX    TMP DP  RH WIND       PRES   REMARKS
NORTH PLATTE   CLOUDY    62  43  49 CALM      30.09R
6HR MIN TEMP:  53; 6HR MAX TEMP:  63;

IMPERIAL       MOCLDY    62  44  51 NE6       30.08S
6HR MIN TEMP:  60; 6HR MAX TEMP:  64;

LEXINGTON      CLOUDY    56  51  85 W5        30.07R
MCCOOK         CLOUDY    60  48  64 N8        30.05R
6HR MIN TEMP:  58; 6HR MAX TEMP:  66;

OGALLALA       CLOUDY    64  38  39 CALM      30.11S
$$

NEZ005>010-023>029-035>040-094-241300-
NORTH CENTRAL NEBRASKA

CITY           SKY/WX    TMP DP  RH WIND       PRES   REMARKS
VALENTINE      PTCLDY    49  40  71 W8        30.09S
6HR MIN TEMP:  47; 6HR MAX TEMP:  57;

AINSWORTH      CLOUDY    53  45  75 NW6       30.07F
BROKEN BOW     MOCLDY    54  50  86 SW5       30.07R
6HR MIN TEMP:  51; 6HR MAX TEMP:  64;

O`NEILL        PTCLDY    56  47  73 NW8       30.03R
ORD            MOCLDY    54  49  83 CALM      30.03R
6HR MIN TEMP:  54; 6HR MAX TEMP:  63;

THEDFORD       MOCLDY    55  44  67 W6        30.11R
$$

NEZ041-046>049-061>064-073>077-083>087-241300-
SOUTH CENTRAL NEBRASKA

CITY           SKY/WX    TMP DP  RH WIND       PRES   REMARKS
GRAND ISLAND   CLOUDY    60  56  86 N6        30.01R
6HR MIN TEMP:  60; 6HR MAX TEMP:  69;

AURORA         MOCLDY    64  64 100 N6        30.00R
HASTINGS       PTCLDY    62  59  90 N9        30.00R
6HR MIN TEMP:  62; 6HR MAX TEMP:  72;

HEBRON         MOCLDY    65  64  96 CALM      29.94R
HOLDREGE       CLOUDY    60  51  72 N8        30.03R
KEARNEY *      CLOUDY    61  50  67 N9        30.02R
YORK           MOCLDY    66  64  94 N6        29.99R
$$

NEZ011>018-030>034-042>045-241300-
NORTHEAST NEBRASKA

CITY           SKY/WX    TMP DP  RH WIND       PRES   REMARKS
NORFOLK        MOCLDY    59  53  80 W6        30.00R
6HR MIN TEMP:  58; 6HR MAX TEMP:  68;

ALBION         MOCLDY    55  52  88 CALM      30.01R
BLAIR          CLOUDY    70  65  86 W8        29.94R
FREMONT        MOCLDY    66  64  96 W7        29.96R
TEKAMAH        PTCLDY    69  63  81 W12       29.93R
6HR MIN TEMP:  67; 6HR MAX TEMP:  69;

WAYNE          PTCLDY    61  57  87 CALM      29.99R
$$

NEZ050>053-065>068-078-088>093-241300-
SOUTHEAST NEBRASKA

CITY           SKY/WX    TMP DP  RH WIND       PRES   REMARKS
LINCOLN        CLOUDY    68  65  90 N7        29.96R
6HR MIN TEMP:  65; 6HR MAX TEMP:  70;

OMAHA EPPLEY   MOCLDY    69  63  81 W5        29.92R
6HR MIN TEMP:  67; 6HR MAX TEMP:  70;

BEATRICE       CLEAR     64  62  93 CALM      29.95R
FALLS CITY     MOCLDY    66  65  96 SE3       29.92R
6HR MIN TEMP:  65; 6HR MAX TEMP:  73; 6HR PCP:  0.93;

NEBRASKA CITY  PTCLDY    64  64 100 N5        29.94R
PLATTSMOUTH    CLOUDY    66  65  97 W5        29.94R
$$

NEZ044-045-051>053-067-241300-
OMAHA AREA

CITY           SKY/WX    TMP DP  RH WIND       PRES   REMARKS
OMAHA EPPLEY   MOCLDY    69  63  81 W5        29.92R
6HR MIN TEMP:  67; 6HR MAX TEMP:  70;

BLAIR          CLOUDY    70  65  86 W8        29.94R
FREMONT        MOCLDY    66  64  96 W7        29.96R
MILLARD        CLOUDY    68  65  89 W5        29.94R
OFFUTT AFB     CLOUDY    67  66  96 W3        29.94R
PLATTSMOUTH    CLOUDY    66  65  97 W5        29.94R
WAHOO          PTSUNNY   66  64  93 CALM      29.96R
$$




USA.gov is the U.S. government's official web portal to all federal, state and local government web resources and services.